Regional Weather Roundup
Issued by NWS

Home | Current Version | Previous Version | Text Only | Print | Product List | Glossary On
Versions: 1 2 3 4 5 6 7 8 9 10 11 12 13 14 15 16 17 18 19 20 21 22 23 24 25 26 27 28 29 30 31 32 33 34 35 36 37 38 39 40 41 42 43 44 45 46 47 48 49 50
000
ASUS44 KFWD 251815
RWRTX
NORTH TEXAS HOURLY WEATHER ROUNDUP
NATIONAL WEATHER SERVICE FORT WORTH TX
100 PM CDT MON MAY 25 2015

NOTE: "FAIR" INDICATES FEW OR NO CLOUDS BELOW 12,000 FEET WITH NO
SIGNIFICANT WEATHER AND/OR OBSTRUCTIONS TO VISIBILITY.

TXZ118-119-251900-
DALLAS/FORT WORTH METROPLEX

CITY           SKY/WX    TMP DP  RH WIND       PRES   REMARKS
DFW AIRPORT    LGT RAIN  73  72  96 SE17G26   29.85F
6HR MIN TEMP:  68; 6HR MAX TEMP:  76; 6HR PCP:  0.02;

DALLAS LOVE    LGT RAIN  78  70  76 S15       29.89S
6HR MIN TEMP:  70; 6HR MAX TEMP:  78; 6HR PCP:  0.02;

FTW MEACHAM    CLOUDY    77  70  79 SE14G22   29.85F
6HR MIN TEMP:  73; 6HR MAX TEMP:  80;

DAL-EXECUTIVE  CLOUDY    75  70  84 SE14G23   29.89S
6HR MIN TEMP:  69; 6HR MAX TEMP:  78; 6HR PCP: TRACE;

FTW-ALLIANCE   CLOUDY    77  70  79 S18       29.86F
6HR MIN TEMP:  71; 6HR MAX TEMP:  79;

FTW-NAS-JRB    CLOUDY    78  71  79 S13       29.86F
6HR MIN TEMP:  73; 6HR MAX TEMP:  80;

FTW-SPINKS     CLOUDY    77  72  83 SE23      29.88F
ARLINGTON      LGT RAIN  77  70  79 SE15      29.88F
6HR MIN TEMP:  71; 6HR MAX TEMP:  78; 6HR PCP:  0.01;

GRAND PRAIRIE  PTSUNNY   75  72  88 SE12G23   29.89F
ADDISON        CLOUDY    77  72  83 SE15G24   29.90F
MESQUITE       PTSUNNY   79  72  78 SE18G25   29.91F
LANCASTER      CLOUDY    77  69  76 SE14      29.91F
6HR MIN TEMP:  69; 6HR MAX TEMP:  78;

$$

TXZ091>094-102>105-117-120-121-131>134-251900-
NORTH CENTRAL TEXAS

CITY           SKY/WX    TMP DP  RH WIND       PRES   REMARKS
SHRMAN/DENISON CLOUDY    77  72  83 SE13      29.92R
6HR MIN TEMP:  71; 6HR MAX TEMP:  79;

GAINESVILLE    CLOUDY    78  69  75 SE20      29.89F
6HR MIN TEMP:  69; 6HR MAX TEMP:  79;

BOWIE          CLOUDY    74  69  81 SE12G18   29.86S
6HR MIN TEMP:  68; 6HR MAX TEMP:  77;

BRIDGEPORT     LGT RAIN  76  70  81 SE10G25   29.86F
6HR MIN TEMP:  70; 6HR MAX TEMP:  80;

DECATUR        CLOUDY    75  66  73 SE13G18   29.86F
6HR MIN TEMP:  68; 6HR MAX TEMP:  78;

DENTON         LGT RAIN  77  70  79 S17       29.86F
6HR MIN TEMP:  71; 6HR MAX TEMP:  79; 6HR PCP: TRACE;

MCKINNEY       LGT RAIN  76  71  85 S16       29.90S
6HR MIN TEMP:  70; 6HR MAX TEMP:  77; 6HR PCP:  0.02;

GREENVILLE     CLOUDY    79  68  69 SE16G22   29.92F
ROCKWALL       CLOUDY    78  71  79 SE14G21   29.90S
6HR MIN TEMP:  70; 6HR MAX TEMP:  78;

TERRELL        CLOUDY    80  70  71 SE17G25   29.91F
6HR MIN TEMP:  71; 6HR MAX TEMP:  80; 6HR PCP: TRACE;

WAXAHACHIE     CLOUDY    75  73  92 SE13G20   29.90F
6HR MIN TEMP:  69; 6HR MAX TEMP:  76;

CLEBURNE       CLOUDY    75  73  94 SE14      29.87F
GRANBURY       CLOUDY    77  70  78 SE9G23    29.85F
6HR MIN TEMP:  73; 6HR MAX TEMP:  80;

$$

TXZ083>090-098>101-113>116-127>130-139>142-154-155-251900-
WESTERN NORTH TEXAS

CITY           SKY/WX    TMP DP  RH WIND       PRES   REMARKS
WICHITA FALLS  CLOUDY    72  67  84 NW3       29.87F
6HR MIN TEMP:  68; 6HR MAX TEMP:  76;

WF-KICKAPOO    CLOUDY    74  69  83 N3        29.89F
6HR MIN TEMP:  70; 6HR MAX TEMP:  78;

VERNON         CLOUDY    64  55  70 W15G23    30.01R THUNDER
6HR MIN TEMP:  63; 6HR MAX TEMP:  85; 6HR PCP:  0.14;

ABILENE        LGT RAIN  60  59  96 NE7       29.88F
6HR MIN TEMP:  59; 6HR MAX TEMP:  72; 6HR PCP:  0.71;

ABILENE-DYESS  CLOUDY    60  55  83 NW5       29.90S
6HR MIN TEMP:  58; 6HR MAX TEMP:  71; 6HR PCP:  0.64;

BRECKENRIDGE   TSTM      63  61  92 N12G24    29.91S
6HR MIN TEMP:  63; 6HR MAX TEMP:  76; 6HR PCP:  0.14;

GRAHAM         RAIN      63  62  96 W20G28    29.90R
6HR MIN TEMP:  62; 6HR MAX TEMP:  75; 6HR PCP:  0.23;

MINERAL WELLS  TSTM      64  60  87 NW24G46   29.86R FOG
6HR MIN TEMP:  69; 6HR MAX TEMP:  80; 6HR PCP: TRACE;

STEPHENVILLE   CLOUDY    76  68  77 SE14G28   29.84F
6HR MIN TEMP:  69; 6HR MAX TEMP:  76;

COMANCHE       CLOUDY    71  63  77 NW16G25   29.90R
6HR MIN TEMP:  69; 6HR MAX TEMP:  76;

BROWNWOOD      RAIN      59  59 100 N12G31    29.90R
COLEMAN        TSTM      60  59  98 N12       29.88F
6HR MIN TEMP:  60; 6HR MAX TEMP:  74; 6HR PCP:  0.01;

$$

TXZ143>147-156>162-174-175-251900-
CENTRAL TEXAS

CITY           SKY/WX    TMP DP  RH WIND       PRES   REMARKS
WACO           TSTM      74  71  91 S14       29.93R
6HR MIN TEMP:  72; 6HR MAX TEMP:  78; 6HR PCP:  0.01;

WACO-MCGREGOR  CLOUDY    73  66  78 CALM      29.93S
6HR MIN TEMP:  70; 6HR MAX TEMP:  77; 6HR PCP:  0.01;

HILLSBORO      CLOUDY    77  68  73 S16G23    29.91R
6HR MIN TEMP:  70; 6HR MAX TEMP:  78;

CORSICANA      CLOUDY    80  71  74 S12G22    29.94S
6HR MIN TEMP:  71; 6HR MAX TEMP:  81;

MEXIA          CLOUDY    77  72  83 SE8       29.93S
6HR MIN TEMP:  70; 6HR MAX TEMP:  77; 6HR PCP:  0.08;

HEARNE         CLOUDY    83  74  73 SE8       29.90F
6HR MIN TEMP:  72; 6HR MAX TEMP:  83;

CAMERON        CLOUDY    81  73  76 SE7       29.87F
6HR MIN TEMP:  72; 6HR MAX TEMP:  81;

TEMPLE         CLOUDY    73  68  83 E9        29.87F
6HR MIN TEMP:  72; 6HR MAX TEMP:  75;

KILLEEN        PTSUNNY   72  72 100 E13G20    29.84F THUNDER
6HR MIN TEMP:  72; 6HR MAX TEMP:  75; 6HR PCP:  0.06;

KILLEEN-SKYLRK CLOUDY    73  68  83 E13       29.84F
6HR MIN TEMP:  72; 6HR MAX TEMP:  75; 6HR PCP:  0.02;

FORT HOOD      CLOUDY    72  71  97 E14       29.83F
6HR MIN TEMP:  72; 6HR MAX TEMP:  75; 6HR PCP:  0.03;

GATESVILLE     CLOUDY    72  72 100 SE7       29.87F FOG
HAMILTON       CLOUDY    73  70  88 S20G26    29.82F
LAMPASAS         N/A     71  70  95 CALM      29.86F THUNDER
$$

TXZ095>097-106>112-122>126-135>138-148>153-164>167-251900-
EAST TEXAS

CITY           SKY/WX    TMP DP  RH WIND       PRES   REMARKS
PARIS          PTSUNNY   79  70  73 S14       29.95F
6HR MIN TEMP:  70; 6HR MAX TEMP:  79;

SULPHUR SPRNGS CLOUDY    80  68  66 S14G23    29.97R
MOUNT PLEASANT PTSUNNY   81  69  68 S12       29.97F
6HR MIN TEMP:  70; 6HR MAX TEMP:  82;

GILMER         PTSUNNY   82  71  69 S9        29.97F
6HR MIN TEMP:  69; 6HR MAX TEMP:  82;

MINEOLA        PTSUNNY   81  72  74 S8        29.96F
TYLER          CLOUDY    83  70  64 S15G21    29.96S
6HR MIN TEMP:  70; 6HR MAX TEMP:  83;

LONGVIEW       PTSUNNY   83  71  67 S10       29.96F
6HR MIN TEMP:  72; 6HR MAX TEMP:  83;

MARSHALL       CLOUDY    82  71  69 S8        30.01S
6HR MIN TEMP:  73; 6HR MAX TEMP:  83;

ATHENS         CLOUDY    79  70  73 S12       29.94S
PALESTINE      CLOUDY    81  72  74 SE8       29.96S
JACKSONVILLE   CLOUDY    82  71  67 SE14      29.98F
HENDERSON      CLOUDY    80  70  71 S7        29.98F
6HR MIN TEMP:  71; 6HR MAX TEMP:  81;

NACOGDOCHES    PTSUNNY   82  72  69 S9G16     29.97F
6HR MIN TEMP:  70; 6HR MAX TEMP:  82;

LUFKIN         PTSUNNY   87  72  60 S14       29.96F HX  93
6HR MIN TEMP:  71; 6HR MAX TEMP:  88;

$$

SUPPLEMENTAL OBSERVATIONS (CENTRAL)

CITY           SKY/WX    TMP DP  RH WIND       PRES   REMARKS
LAKE TEXOMA      N/A     77  68  73 S12         N/A
CADDO GRASSLND   N/A     75  70  83 SE6         N/A
PAT MAYSE LAKE   N/A     72  70  94 E9          N/A
GREENVILLE       N/A     81  68  65 S10G22      N/A
CEDAR HILL       N/A     77  72  83 SE9G21      N/A
ATHENS           N/A     81  68  65 S12         N/A
LAKE LIMESTONE   N/A     82  72  69 S7          N/A
MCGREGOR         N/A     73  70  88 E6G17       N/A
TEMPLE           N/A     77  72  83 E7          N/A
$$

SUPPLEMENTAL OBSERVATIONS (WEST)

CITY           SKY/WX    TMP DP  RH WIND       PRES   REMARKS
MILLERS CREEK    N/A     59  55  88 N15G32      N/A


USA.gov is the U.S. government's official web portal to all federal, state and local government web resources and services.